Погода в Фрунзенском

Россия / Чеченская Республика     43°38′06″N   45°39′44″E
темп.,
°C
ветер,
м/с
пор.,
м/с
влажн.,
%
обл.,
%
осадки,
мм/ч
давл.,
гПа
погр.,
м
16 мая, пн
пн1600:00+18зсз3675100 0.3 1013188
03:00+17зсз3579100 0.4 1013140
06:00+17сз377685 0.1 1013288
09:00+17сз5872100 0.5 1015651
12:00+16з4673100 0.6 1016506
15:00+17зюз5666100 0.6 1016593
18:00+16юз6116552 0.0 1016388
21:00+15з496196 0.0 1018269
17 мая, вт
вт1700:00+15з4962100 0.0 1018248
03:00+15зсз4769100 0.0 1017205
06:00+14зюз3574100 0.0 1018169
09:00+17з3458100 0.0 1017631
12:00+18з455682 0.0 10171024
15:00+18зюз455224 0.0 10151032
18:00+18юз45545 0.0 1015759
21:00+14зюз356847 0.0 101687
18 мая, ср
ср1800:00+14зсз2580100 0.1 1016212
03:00+14юз3585100 0.3 1016194
06:00+15юз237889 0.0 1015144
09:00+19ююз115222 0.0 1014837
12:00+23вюв4440100 0.0 10111739
15:00+24в763929 0.0 10091874
18:00+20в78545 0.0 1009792
21:00+15в477198 0.0 1010262
19 мая, чт
чт1900:00+13св11825 0.0 101015
03:00+12с23850 0.0 101165
06:00+14с587788 0.0 1014594
09:00+15сз3472100 0.0 1016760
12:00+14сз6676100 0.1 1018615
15:00+12сз71084100 0.7 1020806
18:00+11зюз71088100 0.4 1022525
21:00+11зюз61180100 0.6 1023394
20 мая, пт
пт2000:00+11зюз61273100 0.0 1022359
03:00+10з6128082 0.0 1022388
06:00+11з61276100 0.0 1022428
09:00+15зсз795743 0.1 10221219
12:00+18зсз7943100 0.4 10202370
15:00+18сз8104590 0.4 10201982
18:00+16сз6106041 0.3 10201356
21:00+14зсз61066100 0.4 1021973